This is the latest recevied weather packets stored in our database for station/object AG7BI. If no packets are shown the sender has not sent any weather packets the latest 10 day(s).
| Time | Temp. | Humidity | Pressure | Rain* | Wind** | Luminosity | Snow |
|---|---|---|---|---|---|---|---|
| 1777672252 | 15.56° C | 67% | 1016.2 hPa | 0 mm | - | - | - |
| 1777671952 | 15.56° C | 66% | 1016 hPa | 0 mm | - | - | - |
| 1777671652 | 15.56° C | 65% | 1016.3 hPa | 0 mm | - | - | - |
| 1777671352 | 16.11° C | 65% | 1016.2 hPa | 0 mm | - | - | - |
| 1777671052 | 15.56° C | 66% | 1016.1 hPa | 0 mm | - | - | - |
| 1777670752 | 15.56° C | 67% | 1016.2 hPa | 0 mm | - | - | - |
| 1777670452 | 15.56° C | 67% | 1016.4 hPa | 0 mm | - | - | - |
| 1777670152 | 15.56° C | 66% | 1016.4 hPa | 0 mm | - | - | - |
| 1777669852 | 15.56° C | 68% | 1016.4 hPa | 0 mm | - | - | - |
| 1777669552 | 15.56° C | 69% | 1016.3 hPa | 0 mm | - | - | - |
| 1777669252 | 15.56° C | 68% | 1016.5 hPa | 0 mm | - | - | - |
| 1777668952 | 15° C | 68% | 1016.4 hPa | 0 mm | - | - | - |
| 1777668652 | 15.56° C | 69% | 1016.3 hPa | 0 mm | - | - | - |
| 1777668352 | 15.56° C | 68% | 1016.4 hPa | 0 mm | - | - | - |
| 1777668052 | 15.56° C | 67% | 1016.5 hPa | 0 mm | - | - | - |
| 1777667752 | 16.11° C | 66% | 1016.4 hPa | 0 mm | - | - | - |
| 1777667452 | 16.11° C | 70% | 1016.4 hPa | 0 mm | - | - | - |
| 1777667152 | 16.11° C | 67% | 1016.5 hPa | 0 mm | - | - | - |
| 1777666852 | 16.11° C | 67% | 1016.5 hPa | 0 mm | - | - | - |
| 1777666552 | 16.11° C | 67% | 1016.5 hPa | 0 mm | - | - | - |
| 1777666252 | 16.67° C | 65% | 1016.4 hPa | 0 mm | - | - | - |
| 1777665952 | 16.67° C | 66% | 1016.4 hPa | 0 mm | - | - | - |
| 1777665652 | 16.67° C | 66% | 1016.7 hPa | 0 mm | - | - | - |
| 1777665352 | 16.67° C | 64% | 1016.6 hPa | 0 mm | - | - | - |
| 1777665052 | 17.22° C | 63% | 1016.6 hPa | 0 mm | - | - | - |
* Rain latest hour (hover to see other rain measurements)
** Current wind speed in m/s (hover to see current wind gust speed)